Wind_Speed
27 27 27 27 27 26 27 27 27 25 24 22 22 21 21 21 22 21 21 20 20 19 19 19 19 19 20 20 20 20 19 19 19 20 21 22 22 22 22 23 23 23 23 23
29 28 28 28 27 28 28 28 28 28 26 24 23 23 23 23 22 22 21 21 20 20 20 20 20 20 20 21 20 20 20 19 19 20 21 21 22 22 23 23 24 24 24 25
29 29 29 30 29 30 30 29 29 29 28 27 26 25 24 24 23 22 23 23 22 21 22 22 21 21 21 21 21 21 21 20 20 21 22 22 23 23 23 23 23 24 25 26
30 29 31 30 30 31 32 31 30 29 28 28 27 26 25 25 24 24 24 25 24 24 24 23 23 23 23 22 22 22 22 22 21 22 22 23 23 24 24 24 24 25 26 27
29 30 30 29 29 29 30 30 29 28 27 27 27 26 26 25 26 25 26 27 26 25 24 24 24 24 24 24 24 23 23 22 22 22 23 24 24 24 24 25 25 26 26 27
28 29 29 27 28 28 28 27 27 27 27 27 27 27 26 26 26 26 26 26 26 26 25 25 25 25 25 26 26 26 25 24 24 24 25 25 25 25 25 25 26 26 27 27
27 28 28 27 28 28 28 26 26 27 27 28 28 28 28 27 26 26 25 25 26 26 25 25 26 26 27 28 28 27 27 27 27 27 26 27 27 26 26 26 27 28 28 28
28 27 26 27 28 28 29 28 27 27 27 27 27 27 28 28 27 27 27 26 26 26 26 27 28 29 29 29 29 29 29 29 29 29 28 28 28 28 28 28 29 29 29 29
27 26 25 26 28 28 29 28 28 28 28 28 28 28 29 29 28 28 27 27 28 28 28 28 29 30 30 31 30 30 30 30 30 30 30 30 30 29 29 29 29 29 30 30
28 26 26 26 27 27 28 28 28 29 29 29 30 29 29 29 29 28 28 28 28 29 29 30 30 31 32 33 32 32 32 31 31 31 31 31 31 31 30 30 30 30 30 30
29 28 28 28 28 28 28 29 29 28 30 30 30 30 30 30 30 30 29 29 29 29 30 31 32 33 33 33 33 33 33 33 32 32 32 32 32 32 32 32 32 31 31 31
28 29 30 29 28 28 28 28 29 30 29 29 29 29 30 30 30 30 30 31 31 31 31 32 33 33 33 33 33 34 34 34 33 32 32 33 33 33 33 32 32 31 31 30
29 30 30 29 29 28 28 29 30 30 30 30 30 30 30 30 29 30 31 31 31 32 33 33 32 33 33 33 33 33 33 33 33 32 32 32 32 33 32 32 31 31 31 30
30 30 30 30 30 29 29 30 30 30 30 31 31 31 31 30 30 30 31 31 32 32 32 32 33 33 32 32 32 32 33 32 32 31 31 31 31 31 31 31 31 31 31 30
29 30 30 30 30 29 29 29 30 30 30 30 31 31 31 31 31 31 32 32 31 31 31 31 31 31 31 32 32 32 32 32 31 31 31 31 31 31 31 31 31 30 30 30
27 28 28 28 29 29 29 29 29 30 31 31 31 31 32 32 33 33 33 31 31 31 31 31 31 31 31 32 32 32 32 32 32 32 31 31 30 29 30 30 29 29 29 29
27 27 27 27 27 27 28 29 30 30 30 31 31 31 32 33 33 33 32 32 32 31 31 31 31 32 32 32 33 33 33 33 33 32 31 31 30 29 29 29 28 28 28 28
25 26 26 26 26 26 27 27 29 29 30 30 30 31 31 31 32 32 32 32 31 31 31 31 32 32 32 33 34 33 33 33 32 32 31 30 30 29 29 29 28 27 27 28
23 23 24 24 24 25 26 27 27 27 27 27 28 28 29 30 30 31 31 31 31 31 31 31 32 32 33 33 33 33 32 32 32 31 30 30 31 30 30 29 28 27 26 27
21 21 21 21 22 23 24 25 24 24 24 25 25 26 27 27 28 29 30 30 31 31 31 31 31 32 31 31 31 32 31 31 30 30 30 30 29 29 29 29 28 28 27 28
19 20 20 21 21 22 22 23 22 22 23 23 24 25 25 26 26 27 28 29 29 30 30 30 31 31 31 31 31 31 31 30 29 29 29 29 29 29 29 28 28 28 28 29
20 20 20 20 21 21 21 21 22 22 22 22 23 23 24 24 25 26 27 27 28 29 29 29 29 30 30 30 30 30 29 29 28 28 28 28 28 28 28 27 28 28 28 29
20 19 19 19 19 20 21 21 20 20 20 21 22 22 22 23 24 25 26 27 27 27 27 27 28 28 27 28 28 28 27 27 27 27 27 27 27 28 28 28 27 27 28 28
19 19 19 18 18 19 19 20 19 19 19 20 20 21 21 22 22 24 25 26 26 26 26 26 26 25 26 26 26 25 25 25 26 26 26 26 26 26 27 27 27 28 28 29
19 19 19 18 17 17 17 18 19 19 20 20 20 20 20 21 21 22 22 23 24 24 24 24 24 23 24 24 24 24 24 24 25 25 25 26 26 26 26 27 28 28 29 29
16 16 16 16 16 17 18 18 19 20 21 20 20 20 20 21 22 22 22 23 23 22 22 22 22 22 22 22 22 22 22 22 23 23 24 25 25 25 26 27 28 28 29 29
13 14 14 15 16 17 17 18 19 19 20 20 20 20 20 20 20 20 20 20 19 19 20 20 20 21 21 21 21 21 21 22 22 22 23 23 24 25 25 26 27 28 28 28
Wind_Direction
243 244 246 248 250 251 253 256 258 260 262 264 267 268 268 267 267 268 269 270 271 272 272 272 273 274 275 278 280 282 283 285 282 280 278 277 274 274 276 274 272 273 272 273
245 246 247 248 249 251 254 256 258 260 262 264 267 268 268 267 268 268 270 273 274 272 269 271 273 276 279 278 280 282 283 282 282 282 280 280 277 276 277 275 274 273 272 273
248 248 249 249 249 251 255 257 259 260 261 263 265 267 266 268 270 270 272 274 274 272 268 267 271 274 277 279 281 281 282 281 281 281 281 280 279 278 278 277 276 276 275 275
252 251 251 252 251 253 256 258 260 260 259 261 263 265 265 268 272 273 272 270 271 271 270 270 271 273 276 278 279 280 281 284 282 280 280 280 279 278 277 277 278 279 279 277
253 252 253 253 253 256 258 258 260 260 259 259 260 261 263 267 269 272 272 269 268 268 269 271 273 274 275 276 279 281 282 283 284 284 282 281 280 279 279 278 278 280 279 280
255 255 255 257 258 258 258 258 260 261 259 258 259 260 262 264 266 269 269 267 266 267 269 270 272 275 276 278 280 283 284 284 284 285 284 283 282 281 278 277 277 277 278 280
255 257 257 258 259 258 258 259 260 261 260 258 258 259 261 262 264 266 266 266 267 267 268 270 272 275 277 279 281 283 283 283 284 283 282 281 281 280 278 278 277 277 278 279
254 257 258 260 260 259 259 261 261 261 260 259 260 260 260 261 263 264 264 264 266 267 270 271 272 274 276 278 279 281 282 283 282 282 282 280 279 279 278 278 278 278 278 278
256 259 260 260 261 260 259 260 260 260 259 258 260 259 259 260 261 262 263 264 265 268 271 273 273 274 275 275 276 278 279 281 282 282 282 280 278 278 278 277 277 277 276 276
256 260 259 259 261 261 259 259 259 258 259 259 260 259 259 260 261 262 263 264 266 268 271 274 275 275 275 275 276 277 277 279 280 280 281 281 280 279 278 277 277 277 276 276
257 259 260 261 261 262 260 258 259 261 260 259 260 261 259 258 260 261 262 263 267 271 272 274 275 275 275 275 276 277 277 279 280 280 280 281 279 279 279 277 276 276 276 276
259 259 260 260 262 263 261 260 260 261 263 262 262 262 261 259 259 261 263 265 268 271 272 274 275 274 275 276 276 277 278 279 280 282 281 281 279 277 277 277 276 276 275 274
259 259 260 260 262 263 261 261 261 261 261 261 262 262 260 258 260 261 263 265 268 271 272 273 275 275 276 276 276 277 278 279 280 281 282 281 279 277 276 276 275 275 274 273
259 259 260 260 261 262 261 262 262 262 262 261 260 258 257 258 259 261 263 266 268 271 273 273 274 276 276 276 277 278 279 280 281 282 283 282 279 278 277 275 276 276 275 274
260 261 261 261 261 262 262 263 263 263 263 263 262 260 260 262 263 264 265 267 269 271 273 274 275 276 278 278 278 278 279 280 280 282 282 282 281 279 277 276 275 274 275 274
259 260 262 263 261 262 262 262 263 264 264 263 263 263 263 264 264 265 265 267 270 271 273 275 276 277 277 278 279 278 279 281 281 282 282 281 280 280 280 278 275 275 274 273
259 261 263 264 261 261 262 263 265 265 265 266 266 266 265 264 264 264 266 268 271 272 273 276 277 276 277 277 278 279 279 280 281 282 280 279 279 280 280 279 277 276 274 272
262 263 263 263 262 263 264 265 266 266 265 265 265 268 269 268 268 268 269 270 271 272 273 274 276 276 276 276 276 277 279 280 280 279 278 278 277 277 277 277 278 277 274 273
260 261 263 265 264 264 264 266 268 266 265 265 267 269 271 272 271 271 271 271 272 273 274 275 275 275 276 276 277 278 278 279 278 277 277 276 276 275 274 275 276 275 274 273
258 260 264 266 266 265 265 265 266 267 268 268 270 272 274 273 273 272 271 271 272 274 274 273 273 274 276 276 277 278 278 277 276 275 275 276 275 274 274 275 275 272 272 274
260 260 262 262 263 265 266 266 266 270 270 270 272 273 273 273 273 274 275 274 273 272 272 272 272 273 274 276 277 277 277 276 275 274 274 274 273 274 275 276 274 273 273 274
260 261 262 264 262 263 265 265 269 271 272 272 274 274 274 274 275 276 277 277 275 273 273 272 272 273 276 276 276 276 275 274 274 274 274 273 274 275 275 275 274 273 274 276
262 263 263 265 265 265 264 265 268 271 273 274 274 275 275 276 275 275 276 275 275 276 275 273 272 274 275 277 277 276 275 273 273 272 272 272 273 274 274 275 275 275 276 278
263 265 265 264 263 265 267 268 271 273 274 276 277 278 279 279 277 276 277 276 275 276 277 276 275 275 276 277 276 274 273 272 271 271 271 271 272 273 274 274 275 276 277 277
266 264 261 262 266 271 274 275 275 277 278 280 282 284 286 286 284 283 281 280 278 277 278 277 275 273 273 275 277 276 275 273 271 271 271 273 274 275 276 278 280 280 279 278
267 265 265 268 272 275 278 280 281 283 283 285 286 287 289 291 289 286 284 284 282 280 277 274 271 271 274 277 278 279 280 279 276 275 275 276 277 278 278 278 279 279 279 278
275 273 271 270 274 278 282 283 284 284 286 288 290 291 292 293 291 288 287 285 283 281 278 275 273 273 276 280 281 282 282 280 277 276 277 277 279 281 280 279 280 280 279 279
Height
5794 5796 5798 5800 5802 5804 5805 5806 5808 5810 5811 5813 5814 5815 5815 5816 5817 5817 5817 5817 5817 5817 5817 5817 5816 5816 5816 5815 5814 5813 5813 5812 5811 5811 5810 5810 5809 5809 5809 5809 5809 5808 5808 5808
5787 5789 5791 5793 5795 5797 5798 5800 5801 5803 5805 5807 5807 5808 5809 5809 5810 5811 5811 5811 5810 5810 5810 5810 5811 5811 5810 5809 5808 5807 5807 5806 5806 5805 5805 5804 5803 5803 5803 5802 5802 5802 5801 5801
5780 5782 5783 5785 5788 5789 5791 5792 5794 5796 5799 5799 5800 5801 5802 5802 5803 5803 5804 5804 5804 5804 5804 5804 5804 5804 5804 5803 5802 5801 5800 5799 5799 5799 5798 5797 5797 5797 5796 5795 5795 5795 5795 5794
5772 5775 5775 5780 5781 5782 5783 5785 5786 5788 5790 5792 5793 5794 5794 5795 5796 5796 5796 5797 5797 5797 5797 5797 5797 5797 5797 5797 5796 5795 5794 5793 5792 5792 5791 5791 5790 5790 5789 5789 5788 5788 5787 5786
5765 5766 5768 5772 5773 5774 5775 5777 5779 5780 5782 5783 5784 5785 5787 5788 5788 5789 5789 5789 5790 5790 5790 5790 5790 5790 5790 5789 5789 5788 5787 5786 5786 5785 5784 5784 5783 5782 5782 5781 5781 5780 5779 5778
5758 5759 5761 5766 5766 5767 5769 5770 5772 5772 5774 5775 5776 5778 5780 5780 5780 5781 5781 5781 5782 5783 5783 5783 5783 5783 5782 5783 5782 5781 5780 5779 5779 5778 5777 5776 5775 5775 5774 5774 5773 5772 5771 5770
5750 5752 5754 5757 5758 5759 5762 5764 5764 5764 5765 5767 5768 5770 5772 5772 5772 5773 5774 5774 5774 5774 5775 5775 5775 5775 5775 5775 5775 5774 5773 5772 5771 5770 5769 5768 5767 5766 5766 5765 5765 5764 5763 5762
5744 5745 5750 5750 5751 5752 5754 5755 5755 5756 5757 5758 5760 5761 5762 5763 5764 5765 5766 5766 5767 5767 5767 5767 5767 5768 5768 5767 5767 5766 5765 5764 5763 5762 5761 5760 5759 5758 5757 5757 5756 5755 5754 5754
5738 5741 5741 5742 5743 5744 5745 5746 5747 5748 5749 5751 5752 5753 5754 5755 5756 5757 5758 5758 5759 5759 5759 5759 5759 5759 5759 5758 5758 5757 5756 5755 5754 5753 5752 5750 5750 5749 5748 5748 5747 5746 5746 5745
5730 5732 5733 5734 5735 5736 5737 5738 5739 5740 5742 5743 5744 5745 5746 5747 5748 5749 5749 5750 5750 5750 5750 5750 5750 5749 5749 5749 5748 5748 5747 5746 5745 5744 5742 5741 5740 5739 5739 5738 5738 5737 5736 5736
5722 5724 5725 5727 5728 5728 5729 5730 5731 5732 5733 5734 5735 5736 5737 5738 5739 5740 5740 5741 5741 5741 5741 5741 5740 5740 5740 5739 5738 5737 5737 5736 5735 5734 5733 5732 5731 5730 5729 5729 5728 5728 5727 5726
5715 5716 5717 5719 5719 5720 5721 5722 5723 5724 5725 5726 5727 5727 5728 5729 5729 5730 5731 5731 5731 5731 5731 5731 5730 5730 5730 5729 5728 5728 5727 5727 5726 5724 5723 5722 5721 5720 5719 5718 5718 5717 5717 5716
5706 5707 5709 5710 5711 5711 5712 5713 5714 5715 5716 5717 5717 5718 5719 5719 5720 5721 5721 5722 5722 5722 5721 5721 5721 5720 5720 5719 5719 5718 5717 5716 5716 5715 5713 5712 5711 5710 5709 5709 5708 5708 5707 5706
5698 5699 5700 5702 5703 5703 5704 5704 5705 5706 5706 5707 5708 5708 5709 5710 5710 5711 5712 5712 5712 5712 5712 5711 5711 5711 5710 5709 5708 5708 5707 5706 5705 5705 5703 5702 5701 5700 5700 5699 5699 5698 5697 5697
5690 5691 5692 5693 5694 5694 5695 5696 5696 5697 5697 5698 5698 5699 5700 5701 5701 5701 5702 5702 5702 5702 5702 5702 5701 5701 5700 5699 5699 5698 5697 5697 5696 5695 5694 5693 5692 5691 5690 5689 5689 5689 5688 5687
5681 5682 5683 5684 5685 5686 5686 5687 5688 5688 5688 5689 5690 5690 5690 5691 5691 5691 5691 5691 5692 5692 5692 5692 5691 5691 5690 5690 5689 5688 5688 5687 5686 5685 5684 5683 5682 5681 5680 5679 5679 5679 5678 5678
5673 5674 5675 5675 5676 5677 5677 5678 5679 5679 5679 5679 5680 5680 5680 5681 5681 5682 5682 5682 5682 5682 5682 5682 5681 5681 5680 5679 5679 5678 5677 5677 5676 5674 5673 5673 5672 5671 5671 5670 5669 5669 5669 5668
5665 5666 5666 5667 5668 5668 5668 5669 5669 5669 5669 5670 5670 5671 5671 5671 5671 5672 5671 5671 5672 5672 5672 5672 5671 5670 5670 5669 5668 5668 5667 5666 5665 5664 5663 5662 5662 5661 5661 5661 5660 5660 5659 5659
5657 5658 5658 5659 5659 5659 5660 5660 5660 5660 5660 5660 5661 5661 5661 5661 5661 5661 5661 5661 5661 5661 5662 5661 5660 5660 5659 5658 5658 5657 5656 5655 5654 5653 5652 5652 5652 5652 5651 5651 5651 5650 5650 5650
5650 5651 5651 5651 5651 5652 5652 5652 5652 5652 5652 5652 5652 5652 5652 5652 5652 5651 5651 5651 5650 5650 5651 5650 5650 5649 5649 5648 5647 5646 5645 5644 5643 5642 5642 5642 5641 5642 5642 5641 5641 5641 5641 5641
5644 5644 5644 5644 5644 5644 5645 5645 5645 5645 5644 5644 5644 5644 5643 5643 5642 5642 5641 5641 5641 5639 5639 5639 5639 5638 5638 5637 5636 5635 5634 5634 5633 5632 5632 5632 5632 5632 5631 5631 5631 5631 5631 5631
5637 5638 5638 5638 5638 5638 5638 5638 5637 5637 5636 5636 5636 5635 5635 5634 5634 5633 5632 5631 5630 5629 5628 5628 5628 5627 5627 5626 5625 5625 5624 5623 5623 5622 5622 5622 5622 5622 5622 5622 5622 5622 5622 5622
5631 5632 5632 5632 5632 5632 5631 5631 5630 5630 5629 5628 5628 5628 5627 5626 5625 5624 5623 5621 5620 5619 5618 5618 5617 5617 5617 5616 5616 5615 5614 5614 5614 5613 5613 5613 5613 5613 5613 5613 5613 5613 5613 5613
5626 5626 5626 5626 5626 5625 5624 5624 5624 5624 5623 5622 5621 5620 5619 5618 5616 5615 5613 5612 5610 5610 5609 5608 5608 5608 5608 5607 5607 5606 5605 5605 5605 5604 5604 5604 5604 5604 5604 5604 5604 5604 5603 5603
5620 5620 5620 5619 5620 5619 5619 5619 5618 5618 5617 5616 5615 5613 5612 5610 5609 5606 5604 5603 5602 5601 5600 5599 5599 5599 5599 5599 5598 5597 5597 5596 5596 5596 5596 5596 5596 5595 5595 5595 5594 5594 5594 5593
5614 5614 5614 5614 5614 5614 5613 5613 5612 5611 5610 5609 5608 5606 5604 5602 5600 5598 5596 5595 5594 5593 5592 5592 5592 5592 5592 5591 5591 5589 5589 5588 5588 5588 5588 5588 5587 5587 5587 5586 5585 5585 5584 5584
5609 5609 5609 5609 5608 5608 5607 5607 5606 5605 5603 5602 5601 5599 5598 5596 5593 5591 5589 5588 5587 5587 5586 5585 5585 5585 5585 5584 5584 5582 5582 5581 5581 5581 5580 5580 5579 5579 5578 5577 5577 5576 5575 5574